International Virtual Aviation Organisation

Eastern Europe and Northern Asia MCD

 

Карточка аэропорта UATE

Внимание!
Информация на этой странице в стадии наполнения.
Если вы не увидели какой-то информации, или заметили неточность - пожалуйста сообщите нам!
Спасибо!
Команда RU-STAFF
Название аэропортаАктау
Название аэропорта (англ.)Aktau
Превышение75 ft. (22.9 m.)
Координаты43°51.138', 51°5.3639999999999'
Высота перехода2050
Эшелон переходаFL40
Коды ответчика3460-3467, 3550-3557
Зона ОрВДАктобе РПИ (UATT)
Данные METARUATE 101100Z 30007MPS 270V330 CAVOK 13/07 Q1016 R30/0///70 NOSIG RMK QFE761/1014
Проноз погоды (TAF)UATE 101102Z 1012/1112 30007MPS 9999 SCT033CB TX20/1109Z TN10/1103Z TEMPO 1015/1018 3100 BR SCT003 BECMG 1018/1020 03005MPS BECMG 1103/1105 12008MPS
NOTAMshow/hide NOTAM
AWOS   TABLE

Информация о ВПП

ВПП Длина ВПП (м.) Покрытие Курс ВПП Частота ILS
123052Асфальтобетон122109.5
303052Асфальт302111.1

Диспетчерские позиции

Позывной Наименование органа УВД Частота
UATE_TWRАктау Вышка120.7
UATE_APPАктау Поход134.3



Спутниковое изображение